Simultaneous Nadir Overpasses (SNOs) Predictions

Prediction of SNOs between LANDSAT-8 and METOP-A Satellite Orbit:

Table of predicted SNOs for the next 14.0 days since TLE Epoch: 9/5/2020
Index Date (LANDSAT-8) Time (LANDSAT-8) Lat,Lon (LANDSAT-8) SZA (LANDSAT-8 ) Date (METOP-A) Time (METOP-A) Lat,Lon (METOP-A) SZA (METOP-A ) Distance(km) Time Diff (sec)
1 09/05/2020 22:21:17 -81.46, 70.95 102.21 09/05/2020 22:20:05 -81.46, 71.00 102.24 1.06 72
2 09/05/2020 23:10:44 81.45,-121.71 77.76 09/05/2020 23:10:46 81.46,-121.78 77.76 1.50 2
3 09/06/2020 00:00:03 -81.57, 49.05 101.80 09/06/2020 00:01:14 -81.33, 50.59 101.74 37.30 71
4 09/08/2020 17:55:34 -81.45, 137.17 101.17 09/08/2020 17:54:29 -81.46, 137.25 101.18 1.43 65
5 09/08/2020 18:45:00 81.45, -55.12 78.86 09/08/2020 18:45:09 81.45, -55.16 78.86 0.64 9
6 09/11/2020 13:29:49 -81.46,-156.23 100.06 09/11/2020 13:28:51 -81.45,-156.11 100.07 2.10 58
7 09/11/2020 14:19:16 81.44, 11.05 79.91 09/11/2020 14:19:32 81.45, 11.05 79.93 1.35 16
8 09/14/2020 09:04:06 -81.45, -90.05 98.99 09/14/2020 09:03:15 -81.45, -89.89 98.99 2.77 51
9 09/14/2020 09:53:32 81.45, 77.60 81.03 09/14/2020 09:53:55 81.45, 77.64 81.04 0.67 23
10 09/17/2020 04:38:22 -81.45, -23.50 97.87 09/17/2020 04:37:39 -81.46, -23.68 97.91 2.97 43
